Flag for France Weather past 2 weeks in Nancy, France

Now
34 °F

Mostly cloudy.


Feels Like: 25 °F
Forecast: 27 / 35 °F
Wind: 13 mph from Northwest

Location: Nancy / Ochey

Current Time: Feb 1, 2015 at 11:14:38 PM

Latest Report: Feb 1, 2015 at 10:30 PM


Visibility: 4 mi

Pressure: 29.45 "Hg

Humidity: 100%

Dew point: 34 °F

Location of NancyLocation

Historic Weather in Nancy — Graph

°F

Nancy temperature yesterday

Maximum temperature yesterday: 36 °F (at 4:00 PM)
Minimum temperature yesterday: 32 °F (at 12:00 AM)
Average temperature yesterday: 33 °F

Past Weeks' High & Low Weather Summary

 TemperatureHumidityPressure
High41 °F (Jan 28, 2:30 PM)100% (Jan 17, 9:00 PM)30.45 "Hg (Jan 17, 9:00 PM)
Low25 °F (Jan 19, 3:00 AM)75% (Jan 20, 2:30 PM)28.80 "Hg (Jan 29, 11:00 PM)
Average33 °F95%29.81 "Hg
* Reported Jan 17 9:00 PM — Feb 1 9:30 PM, Nancy, Weather by CustomWeather, © 2014

Note: Actual official high and low records may vary slightly from our data, if they occured in-between our weather recording intervals... More about our weather records

Advertising

Nancy weather history for previous 24 hours

 ConditionsComfort  
Time TempWeatherWind HumidityBarometerVisibility
9:30 PM
Feb 1
34 °FLow clouds.10 mph100%29.42 "HgN/A
9:00 PM34 °FLight snow. Mostly cloudy.10 mph100%29.42 "Hg4 mi
8:30 PM34 °FLight rain. Mostly cloudy.14 mph100%29.42 "Hg4 mi
8:00 PM32 °FLight snow. Ice fog.15 mph100%29.42 "Hg1 mi
7:30 PM32 °FHeavy snow. Ice fog.15 mph100%29.39 "Hg1 mi
7:00 PM34 °FLight rain. Low clouds.16 mph100%29.39 "Hg6 mi
6:30 PM34 °FDrizzle. Low clouds.14 mph100%29.39 "Hg5 mi
6:00 PM34 °FLight snow. Fog.16 mph100%29.39 "Hg3 mi
5:30 PM34 °FLight rain. Low clouds.14 mph93%29.39 "HgN/A
5:00 PM34 °FDrizzle. Mostly cloudy.15 mph93%29.39 "HgN/A
4:30 PM34 °FOvercast.13 mph93%29.39 "HgN/A
4:00 PM34 °FLow clouds.13 mph93%29.39 "HgN/A
3:30 PM34 °FLight rain. Mostly cloudy.10 mph93%29.39 "Hg5 mi
3:00 PM34 °FLight rain. Mostly cloudy.9 mph100%29.36 "Hg5 mi
2:30 PM34 °FLight snow. Partly sunny.9 mph93%29.36 "Hg5 mi
2:00 PM34 °FLight snow. Fog.10 mph93%29.36 "Hg3 mi
1:30 PM34 °FMostly cloudy.12 mph93%29.36 "HgN/A
1:00 PM32 °FOvercast.13 mph100%29.36 "HgN/A
12:30 PM32 °FLight rain. Low clouds.12 mph100%29.36 "HgN/A
12:00 PM32 °FLow clouds.14 mph100%29.33 "HgN/A
11:30 AM32 °FLow clouds.10 mph100%29.33 "HgN/A
11:00 AM32 °FLow clouds.12 mph100%29.33 "HgN/A
10:30 AM32 °FLow clouds.10 mph100%29.30 "HgN/A
10:00 AM32 °FLight snow. Ice fog.12 mph100%29.30 "Hg2 mi
9:30 AM32 °FSnow. Ice fog.8 mph100%29.27 "Hg1 mi
9:00 AM32 °FSnow. Ice fog.8 mph100%29.27 "Hg1 mi
8:30 AM32 °FLight snow. Ice fog.10 mph100%29.24 "Hg2 mi
8:00 AM32 °FLight snow. Ice fog.9 mph100%29.24 "Hg2 mi
7:30 AM32 °FLow clouds.10 mph100%29.24 "Hg6 mi
7:00 AM32 °FMostly cloudy.8 mph100%29.21 "HgN/A
6:30 AM32 °FMostly cloudy.9 mph100%29.21 "HgN/A
6:00 AM32 °FLight snow. Mostly cloudy.8 mph100%29.21 "Hg6 mi
5:30 AM32 °FMostly cloudy.6 mph100%29.21 "HgN/A
5:00 AM32 °FLow clouds.7 mph100%29.21 "HgN/A
4:30 AM32 °FLow clouds.7 mph100%29.18 "HgN/A
4:00 AM32 °FMostly cloudy.7 mph100%29.18 "HgN/A
3:30 AM32 °FMostly cloudy.8 mph100%29.18 "HgN/A
3:00 AM32 °FLow clouds.10 mph100%29.18 "HgN/A
2:30 AM32 °FMostly cloudy.9 mph100%29.18 "Hg4 mi
2:00 AM32 °FLow clouds.10 mph100%29.15 "HgN/A
1:30 AM32 °FMostly cloudy.9 mph100%29.15 "HgN/A
1:00 AM32 °FLow clouds.9 mph100%29.15 "HgN/A
12:30 AM32 °FLow clouds.10 mph100%29.15 "HgN/A
12:00 AM32 °FLight snow. Ice fog.8 mph100%29.12 "Hg2 mi
11:30 PM
Jan 31
32 °FLight snow. Ice fog.10 mph100%29.12 "Hg2 mi
11:00 PM34 °FLight snow. Mostly cloudy.15 mph100%29.12 "Hg4 mi
Weather by CustomWeather, © 2014

See weather overviewHow to use our weather pages